sat.trackr.live / text

‹ back to catalog

SITRO-AIS-59

NORAD 67257 · 2025-313K

PAYLOAD ACTIVE UNKNOWN

§ Identity

Operator
Country
CIS
Launch date
2025-12-28
Launch site
VOSTO
Launch vehicle
Mass (kg)
RCS (m²)

External: N2YO · Heavens-Above · Gunter

§ Orbital elements

Epoch: 2026-09-19T23:24:18.480096Z

Period
94.46 min
Inclination
97.3852°
Eccentricity
0.0015622
Mean motion
15.24451223 rev/d
Perigee alt
481.7 km
Apogee alt
503.2 km
Semi-major
6,870.6 km
B*
2.2726e-4
RAAN
336.1813°
Arg perigee
36.5999°
Mean anomaly
323.6302°
Rev number
4,038

§ Raw data

SITRO-AIS-591 67257U 25313K   26262.97521389  .00005526  00000+0  22726-3 0  99922 67257  97.3852 336.1813 0015622  36.5999 323.6302 15.24451223 40388

JSON: /api/v1/satellites/67257 · /tle

For live sub-satellite position, see the globe view (requires WebGL).

§ Visibility from observer

Set your observer location to see the next 7 days of passes ≥ 10°. The values pass through the URL so the page stays shareable.

No JS? Fill the form by hand. The geolocation button needs JavaScript.